This is the latest recevied weather packets stored in our database for station/object AB4KN. If no packets are shown the sender has not sent any weather packets the latest 10 day(s).
| Time | Temp. | Humidity | Pressure | Rain* | Wind** | Luminosity | Snow |
|---|---|---|---|---|---|---|---|
| 1777217080 | 19.44° C | 89% | 1018.5 hPa | 0 mm | - | 109 W/m² | - |
| 1777216777 | 18.89° C | 89% | 1018.2 hPa | 0 mm | - | 59 W/m² | - |
| 1777216473 | 19.44° C | 89% | 1018.5 hPa | 0 mm | - | 76 W/m² | - |
| 1777216167 | 19.44° C | 89% | 1018.4 hPa | 0 mm | - | 108 W/m² | - |
| 1777215862 | 19.44° C | 89% | 1018.4 hPa | 0 mm | - | 83 W/m² | - |
| 1777215557 | 18.89° C | 89% | 1018.3 hPa | 0 mm | - | 85 W/m² | - |
| 1777215254 | 18.89° C | 89% | 1018.3 hPa | 0 mm | - | 87 W/m² | - |
| 1777214950 | 18.89° C | 89% | 1018 hPa | 0 mm | - | 76 W/m² | - |
| 1777214649 | 18.89° C | 89% | 1018.1 hPa | 0 mm | - | 84 W/m² | - |
| 1777214344 | 18.89° C | 89% | 1018.1 hPa | 0 mm | - | 115 W/m² | - |
| 1777214043 | 18.89° C | 89% | 1018.1 hPa | 0 mm | - | 97 W/m² | - |
| 1777213738 | 18.33° C | 89% | 1017.9 hPa | 0 mm | - | 75 W/m² | - |
| 1777213434 | 18.33° C | 89% | 1017.9 hPa | 0 mm | - | 112 W/m² | - |
| 1777213132 | 18.89° C | 89% | 1017.8 hPa | 0 mm | - | 69 W/m² | - |
| 1777212828 | 18.89° C | 89% | 1017.8 hPa | 0 mm | - | 88 W/m² | - |
| 1777212525 | 18.33° C | 89% | 1017.7 hPa | 0 mm | - | 64 W/m² | - |
| 1777212218 | 18.33° C | 89% | 1017.8 hPa | 0 mm | - | 56 W/m² | - |
| 1777211913 | 18.33° C | 89% | 1017.3 hPa | 0 mm | - | 45 W/m² | - |
| 1777211612 | 18.33° C | 89% | 1017.7 hPa | 0 mm | - | 46 W/m² | - |
| 1777211309 | 17.78° C | 89% | 1017.7 hPa | 0 mm | - | 42 W/m² | - |
| 1777211005 | 17.78° C | 89% | 1017.8 hPa | 0 mm | - | 46 W/m² | - |
| 1777210701 | 17.78° C | 89% | 1017.6 hPa | 0 mm | - | 54 W/m² | - |
| 1777210396 | 17.78° C | 89% | 1017.7 hPa | 0 mm | - | 42 W/m² | - |
| 1777210093 | 17.78° C | 89% | 1017.8 hPa | 0 mm | - | 41 W/m² | - |
| 1777209789 | 17.78° C | 89% | 1017.6 hPa | 0 mm | - | 41 W/m² | - |
* Rain latest hour (hover to see other rain measurements)
** Current wind speed in m/s (hover to see current wind gust speed)